Location: LewisvilleTX
(33.0462°N, 96.9942°W)
Time: 13:22:06
(UTC+00:00)

MANDRAKE 2 BAKER - Pass Details

Date: 05 June 2022
Orbit: 516 x 532 km, 97.6° (Epoch: 30 June)

Event Time Altitude Azimuth Distance (km) Brightness Sun altitude
Exits shadow 08:18:40 26° 348° (NNW) 1,049 ? -28.3°
Drops below altitude 10° 08:20:27 10° 349° (NNW) 1,769 ? -28.1°
Sets 08:22:33 0° 349° (N) 2,659 ? -27.9°
